OPS 4682 DEB, 51487

Orbit data source: Space-Track

OPS 4682 DEB, 51487 is space debris in LEO originally from a launch on Sat, 03 Apr 1965 UTC launched from the Air Force Western Test Range (AFWTR). Debris objects in space refer to the collection of defunct objects orbiting the Earth. Examples of debris include non-operational satellites, rocket bodies, and fragments generated from explosions, collisions, or faulty payload assembly.

Loading next visibility...
Identifier
51487, 1965-027FX
Orbit
LEO
Country
Flag of USUS
Related business
Manufacturer
Unknown
Mission
Spacecraft
Bus & Motor
Unknown
Mass
Unknown
Launch date (UTC)
1965-04-03 (61 years ago)
Launch vehicle
Unknown
Launch site
Air Force Western Test Range (AFWTR)
Object type
Payload
Rocket body
Debris
Shape & HBR
Unknown shape, 1.1 m
Radar Cross Section
Medium (>0.1 m² and <1 m²)

Expand to show TLE details & history
Last TLE update: 1 week ago

TLE from 1 week ago
0 OPS 4682 DEB
1 51487U 65027FX  26257.59829397 -.00000087  00000-0 -33097-3 0  9991
2 51487  90.2407   8.6531 0024787 280.7789  93.3693 12.95961427575131
Epoch: 2026-09-14T14:21Z
TLE epoch observation values (Epoch: 2026-09-14T14:21:32.599Z)
Latitude
14.4026°
Longitude
159.62948°
Altitude
1,281.278 km
Speed
7.216 km/s
True Right ascension
00h 34m 21s
True Declination
14° 19' 32"
Sunlit
Object was in full shadow at epoch
Visualization orbit readout
Latitude
Unknown
Longitude
Unknown
Altitude
Unknown
Speed
Unknown
Apparent Right ascension
Unknown
Apparent Declination
Unknown
Sunlit
N/A
Visualization observer readout
Local Sidereal Time
04:57:34
Azimuth
Unknown
Elevation
Unknown
Doppler factor
Unknown
Orbital elements
Apogee altitude
1,294.054 km
Perigee altitude
1,256.114 km
Semi-major axis
7,653.221 km
Eccentricity
0.00248
Inclination
90.2407°
RAAN
8.6531°
Arg. of periapsis
280.7789°
True anomaly
93.65279°
Mean anomaly
93.3693°
Eccentric anomaly
93.51105°
Mean motion
3.24173 °/min
Orbital period
111.05 mins
BSTAR
-0.00033097
Loading maneuver chart data...
Computing Atmospheric mass density...
Loading historical data...
Loading historical data...
Loading historical data...
Loading historical data...
Loading historical data...
Loading historical data...
Loading historical data...

Documentation

Showing up to 5 results
|